Time,TemperatureF,DewpointF,PressureIn,WindDirection,WindDirectionDegrees,WindSpeedMPH,WindSpeedGustMPH,Humidity,HourlyPrecipIn,Conditions,Clouds,dailyrainin,SoftwareType,DateUTC
2013-02-06 00:00:00,42.6,33.1,30.13,North,351,0.0,1.0,69,0.00,,,0.00,Wunderground v.1.15,2013-02-06 05:00:00,
2013-02-06 00:05:00,42.5,33.0,30.13,North,351,0.0,1.0,69,0.00,,,0.00,Wunderground v.1.15,2013-02-06 05:05:00,
2013-02-06 00:15:00,42.2,33.5,30.13,NNW,340,1.0,3.0,71,0.00,,,0.00,Wunderground v.1.15,2013-02-06 05:15:00,
2013-02-06 00:20:00,42.4,33.7,30.13,NNW,337,1.0,7.0,71,0.00,,,0.00,Wunderground v.1.15,2013-02-06 05:20:00,
2013-02-06 00:25:00,42.7,33.9,30.14,NNW,346,1.0,7.0,71,0.00,,,0.00,Wunderground v.1.15,2013-02-06 05:25:00,
2013-02-06 00:30:00,42.8,34.0,30.14,NNW,346,1.0,1.0,71,0.00,,,0.00,Wunderground v.1.15,2013-02-06 05:30:00,
2013-02-06 00:35:00,42.7,33.9,30.14,North,355,1.0,4.0,71,0.00,,,0.00,Wunderground v.1.15,2013-02-06 05:35:00,
2013-02-06 00:40:00,42.7,33.9,30.14,North,5,1.0,1.0,71,0.00,,,0.00,Wunderground v.1.15,2013-02-06 05:40:00,
2013-02-06 00:50:00,42.3,33.9,30.14,NNW,344,0.0,3.0,72,0.00,,,0.00,Wunderground v.1.15,2013-02-06 05:50:00,
2013-02-06 00:55:00,42.4,34.0,30.15,NNW,344,0.0,3.0,72,0.00,,,0.00,Wunderground v.1.15,2013-02-06 05:55:00,
2013-02-06 01:05:00,42.6,34.2,30.15,North,360,1.0,3.0,72,0.00,,,0.00,Wunderground v.1.15,2013-02-06 06:05:00,
2013-02-06 01:15:00,42.7,34.3,30.15,SSW,203,0.0,5.0,72,0.00,,,0.00,Wunderground v.1.15,2013-02-06 06:15:00,
2013-02-06 01:20:00,42.8,34.4,30.15,North,350,0.0,5.0,72,0.00,,,0.00,Wunderground v.1.15,2013-02-06 06:20:00,
2013-02-06 01:30:00,43.0,34.9,30.15,North,355,0.0,5.0,73,0.00,,,0.00,Wunderground v.1.15,2013-02-06 06:30:00,
2013-02-06 01:35:00,43.2,35.1,30.15,North,351,1.0,5.0,73,0.00,,,0.00,Wunderground v.1.15,2013-02-06 06:35:00,
2013-02-06 01:40:00,43.3,35.2,30.15,NNW,336,1.0,5.0,73,0.00,,,0.00,Wunderground v.1.15,2013-02-06 06:40:00,
2013-02-06 01:45:00,43.5,35.4,30.15,North,350,1.0,6.0,73,0.00,,,0.00,Wunderground v.1.15,2013-02-06 06:45:00,
2013-02-06 01:50:00,43.4,35.3,30.15,North,360,1.0,1.0,73,0.00,,,0.00,Wunderground v.1.15,2013-02-06 06:50:00,
2013-02-06 02:00:00,43.5,35.4,30.15,North,351,1.0,5.0,73,0.00,,,0.00,Wunderground v.1.15,2013-02-06 07:00:00,
2013-02-06 02:05:00,43.6,35.2,30.15,North,349,2.0,5.0,72,0.00,,,0.00,Wunderground v.1.15,2013-02-06 07:05:00,
2013-02-06 02:15:00,43.5,35.4,30.15,North,355,1.0,7.0,73,0.00,,,0.00,Wunderground v.1.15,2013-02-06 07:15:00,
2013-02-06 02:25:00,43.6,35.9,30.15,North,360,1.0,2.0,74,0.00,,,0.00,Wunderground v.1.15,2013-02-06 07:25:00,
2013-02-06 02:30:00,43.6,36.2,30.15,North,360,2.0,8.0,75,0.00,,,0.00,Wunderground v.1.15,2013-02-06 07:30:00,
2013-02-06 02:35:00,43.6,36.5,30.16,NNE,22,6.0,8.0,76,0.00,,,0.00,Wunderground v.1.15,2013-02-06 07:35:00,
2013-02-06 02:40:00,43.4,36.7,30.16,NNW,339,7.0,15.0,77,0.00,,,0.00,Wunderground v.1.15,2013-02-06 07:40:00,
2013-02-06 02:45:00,43.1,36.4,30.15,North,360,9.0,15.0,77,0.00,,,0.00,Wunderground v.1.15,2013-02-06 07:45:00,
2013-02-06 02:55:00,42.5,36.4,30.15,North,355,13.0,14.0,79,0.00,,,0.00,Wunderground v.1.15,2013-02-06 07:55:00,
2013-02-06 03:00:00,42.2,36.2,30.15,North,360,14.0,18.0,79,0.00,,,0.00,Wunderground v.1.15,2013-02-06 08:00:00,
2013-02-06 03:05:00,42.0,36.0,30.15,North,360,16.0,18.0,79,0.00,,,0.00,Wunderground v.1.15,2013-02-06 08:05:00,
2013-02-06 03:15:00,41.6,35.6,30.15,North,355,15.0,20.0,79,0.00,,,0.00,Wunderground v.1.15,2013-02-06 08:15:00,
2013-02-06 03:20:00,41.4,35.1,30.15,North,5,16.0,16.0,78,0.00,,,0.00,Wunderground v.1.15,2013-02-06 08:20:00,
2013-02-06 03:30:00,41.0,34.3,30.16,North,360,15.0,15.0,77,0.00,,,0.00,Wunderground v.1.15,2013-02-06 08:30:00,
2013-02-06 03:40:00,40.7,33.7,30.16,North,360,14.0,25.0,76,0.00,,,0.00,Wunderground v.1.15,2013-02-06 08:40:00,
2013-02-06 03:45:00,40.7,33.7,30.16,North,360,14.0,25.0,76,0.00,,,0.00,Wunderground v.1.15,2013-02-06 08:45:00,
2013-02-06 03:55:00,40.6,33.3,30.16,North,355,16.0,16.0,75,0.00,,,0.00,Wunderground v.1.15,2013-02-06 08:55:00,
2013-02-06 04:00:00,40.4,33.1,30.16,North,5,15.0,25.0,75,0.00,,,0.00,Wunderground v.1.15,2013-02-06 09:00:00,
2013-02-06 04:05:00,40.3,32.7,30.16,North,355,14.0,25.0,74,0.00,,,0.00,Wunderground v.1.15,2013-02-06 09:05:00,
2013-02-06 04:15:00,40.2,32.6,30.16,North,360,14.0,20.0,74,0.00,,,0.00,Wunderground v.1.15,2013-02-06 09:15:00,
2013-02-06 04:20:00,40.2,32.6,30.16,North,10,14.0,20.0,74,0.00,,,0.00,Wunderground v.1.15,2013-02-06 09:20:00,
2013-02-06 04:25:00,40.1,32.5,30.16,NNE,18,14.0,20.0,74,0.00,,,0.00,Wunderground v.1.15,2013-02-06 09:25:00,
2013-02-06 04:30:00,40.0,32.4,30.16,North,360,13.0,13.0,74,0.00,,,0.00,Wunderground v.1.15,2013-02-06 09:30:00,
2013-02-06 04:35:00,39.8,32.5,30.17,North,360,13.0,20.0,75,0.00,,,0.00,Wunderground v.1.15,2013-02-06 09:35:00,
2013-02-06 04:40:00,39.7,32.4,30.17,North,360,12.0,12.0,75,0.00,,,0.00,Wunderground v.1.15,2013-02-06 09:40:00,
2013-02-06 04:45:00,39.6,32.3,30.17,NNW,346,11.0,15.0,75,0.00,,,0.00,Wunderground v.1.15,2013-02-06 09:45:00,
2013-02-06 04:50:00,39.5,32.2,30.18,North,5,12.0,12.0,75,0.00,,,0.00,Wunderground v.1.15,2013-02-06 09:50:00,
2013-02-06 04:55:00,39.3,32.4,30.18,North,5,12.0,20.0,76,0.00,,,0.00,Wunderground v.1.15,2013-02-06 09:55:00,
2013-02-06 05:05:00,39.0,32.1,30.18,North,360,11.0,12.0,76,0.00,,,0.00,Wunderground v.1.15,2013-02-06 10:05:00,
2013-02-06 05:15:00,38.7,32.1,30.18,North,360,12.0,14.0,77,0.00,,,0.00,Wunderground v.1.15,2013-02-06 10:15:00,
2013-02-06 05:20:00,38.6,32.0,30.19,North,355,12.0,21.0,77,0.00,,,0.00,Wunderground v.1.15,2013-02-06 10:20:00,
2013-02-06 05:30:00,38.3,32.0,30.19,North,351,11.0,21.0,78,0.00,,,0.00,Wunderground v.1.15,2013-02-06 10:30:00,
2013-02-06 05:35:00,38.2,31.9,30.20,North,360,10.0,21.0,78,0.00,,,0.00,Wunderground v.1.15,2013-02-06 10:35:00,
2013-02-06 05:41:00,38.0,31.7,30.20,North,360,9.0,9.0,78,0.00,,,0.00,Wunderground v.1.15,2013-02-06 10:41:00,
2013-02-06 05:50:00,37.9,31.7,30.20,North,355,9.0,21.0,78,0.00,,,0.00,Wunderground v.1.15,2013-02-06 10:50:00,
2013-02-06 05:55:00,37.8,31.6,30.21,NNE,15,8.0,21.0,78,0.00,,,0.00,Wunderground v.1.15,2013-02-06 10:55:00,
2013-02-06 06:05:00,37.7,31.5,30.21,North,355,8.0,21.0,78,0.00,,,0.00,Wunderground v.1.15,2013-02-06 11:05:00,
2013-02-06 06:15:00,37.5,31.3,30.21,North,355,9.0,13.0,78,0.00,,,0.00,Wunderground v.1.15,2013-02-06 11:15:00,
2013-02-06 06:25:00,37.4,31.5,30.22,North,360,8.0,13.0,79,0.00,,,0.00,Wunderground v.1.15,2013-02-06 11:25:00,
2013-02-06 06:30:00,37.4,31.5,30.22,North,360,9.0,13.0,79,0.00,,,0.00,Wunderground v.1.15,2013-02-06 11:30:00,
2013-02-06 06:35:00,37.3,31.4,30.23,NNW,346,9.0,13.0,79,0.00,,,0.00,Wunderground v.1.15,2013-02-06 11:35:00,
2013-02-06 06:40:00,37.3,31.1,30.23,North,351,9.0,13.0,78,0.00,,,0.00,Wunderground v.1.15,2013-02-06 11:40:00,
2013-02-06 06:50:00,37.3,31.1,30.24,North,5,8.0,13.0,78,0.00,,,0.00,Wunderground v.1.15,2013-02-06 11:50:00,
2013-02-06 06:55:00,37.3,31.1,30.24,North,360,7.0,13.0,78,0.00,,,0.00,Wunderground v.1.15,2013-02-06 11:55:00,
2013-02-06 07:00:00,37.3,31.1,30.24,North,360,8.0,13.0,78,0.00,,,0.00,Wunderground v.1.15,2013-02-06 12:00:00,
2013-02-06 07:05:00,37.2,31.0,30.24,North,360,8.0,13.0,78,0.00,,,0.00,Wunderground v.1.15,2013-02-06 12:05:00,
2013-02-06 07:15:00,37.1,30.9,30.24,North,355,8.0,9.0,78,0.00,,,0.00,Wunderground v.1.15,2013-02-06 12:15:00,
2013-02-06 07:20:00,37.0,30.8,30.24,NNW,348,7.0,7.0,78,0.00,,,0.00,Wunderground v.1.15,2013-02-06 12:20:00,
2013-02-06 07:30:00,36.9,30.7,30.25,North,355,6.0,13.0,78,0.00,,,0.00,Wunderground v.1.15,2013-02-06 12:30:00,
2013-02-06 07:35:00,36.9,31.0,30.25,North,355,7.0,13.0,79,0.00,,,0.00,Wunderground v.1.15,2013-02-06 12:35:00,
2013-02-06 07:40:00,36.9,30.7,30.26,North,360,7.0,13.0,78,0.00,,,0.00,Wunderground v.1.15,2013-02-06 12:40:00,
2013-02-06 07:50:00,36.9,30.7,30.26,North,355,6.0,13.0,78,0.00,,,0.00,Wunderground v.1.15,2013-02-06 12:50:00,
2013-02-06 07:55:00,36.9,30.7,30.27,North,360,7.0,13.0,78,0.00,,,0.00,Wunderground v.1.15,2013-02-06 12:55:00,
2013-02-06 08:00:00,36.9,30.7,30.27,North,360,7.0,7.0,78,0.00,,,0.00,Wunderground v.1.15,2013-02-06 13:00:00,
2013-02-06 08:05:00,37.0,30.8,30.27,North,360,6.0,8.0,78,0.00,,,0.00,Wunderground v.1.15,2013-02-06 13:05:00,
2013-02-06 08:15:00,37.1,30.9,30.27,North,355,6.0,11.0,78,0.00,,,0.00,Wunderground v.1.15,2013-02-06 13:15:00,
2013-02-06 08:20:00,37.2,31.0,30.28,NNW,348,6.0,11.0,78,0.00,,,0.00,Wunderground v.1.15,2013-02-06 13:20:00,
2013-02-06 08:25:00,37.4,31.2,30.28,North,360,6.0,11.0,78,0.00,,,0.00,Wunderground v.1.15,2013-02-06 13:25:00,
2013-02-06 08:30:00,37.4,31.2,30.28,North,355,5.0,11.0,78,0.00,,,0.00,Wunderground v.1.15,2013-02-06 13:30:00,
2013-02-06 08:35:00,37.4,31.2,30.27,North,5,5.0,11.0,78,0.00,,,0.00,Wunderground v.1.15,2013-02-06 13:35:00,
2013-02-06 08:40:00,37.4,30.8,30.28,North,9,6.0,6.0,77,0.00,,,0.00,Wunderground v.1.15,2013-02-06 13:40:00,
2013-02-06 08:50:00,37.5,30.9,30.28,North,355,6.0,11.0,77,0.00,,,0.00,Wunderground v.1.15,2013-02-06 13:50:00,
2013-02-06 08:55:00,37.5,30.9,30.28,North,5,7.0,11.0,77,0.00,,,0.00,Wunderground v.1.15,2013-02-06 13:55:00,
2013-02-06 09:00:00,37.6,31.0,30.28,North,5,6.0,6.0,77,0.00,,,0.00,Wunderground v.1.15,2013-02-06 14:00:00,
2013-02-06 09:05:00,37.5,30.9,30.28,North,5,5.0,6.0,77,0.00,,,0.00,Wunderground v.1.15,2013-02-06 14:05:00,
2013-02-06 09:15:00,37.7,31.1,30.28,North,355,6.0,10.0,77,0.00,,,0.00,Wunderground v.1.15,2013-02-06 14:15:00,
2013-02-06 09:20:00,37.7,31.1,30.28,North,5,6.0,6.0,77,0.00,,,0.00,Wunderground v.1.15,2013-02-06 14:20:00,
2013-02-06 09:25:00,37.8,31.2,30.28,North,5,6.0,10.0,77,0.00,,,0.00,Wunderground v.1.15,2013-02-06 14:25:00,
2013-02-06 09:30:00,38.0,31.1,30.28,NNE,19,5.0,5.0,76,0.00,,,0.00,Wunderground v.1.15,2013-02-06 14:30:00,
2013-02-06 09:35:00,38.1,31.2,30.28,North,9,6.0,6.0,76,0.00,,,0.00,Wunderground v.1.15,2013-02-06 14:35:00,
2013-02-06 09:40:00,38.3,31.4,30.28,North,360,6.0,6.0,76,0.00,,,0.00,Wunderground v.1.15,2013-02-06 14:40:00,
2013-02-06 09:50:00,39.1,31.5,30.29,North,5,4.0,4.0,74,0.00,,,0.00,Wunderground v.1.15,2013-02-06 14:50:00,
2013-02-06 09:55:00,39.2,31.6,30.29,North,355,4.0,10.0,74,0.00,,,0.00,Wunderground v.1.15,2013-02-06 14:55:00,
2013-02-06 10:00:00,39.5,31.9,30.29,North,355,5.0,5.0,74,0.00,,,0.00,Wunderground v.1.15,2013-02-06 15:00:00,
2013-02-06 10:05:00,39.7,31.8,30.29,North,360,5.0,5.0,73,0.00,,,0.00,Wunderground v.1.15,2013-02-06 15:05:00,
2013-02-06 10:15:00,40.4,31.7,30.29,North,355,4.0,12.0,71,0.00,,,0.00,Wunderground v.1.15,2013-02-06 15:15:00,
2013-02-06 10:20:00,40.6,31.9,30.29,North,5,5.0,5.0,71,0.00,,,0.00,Wunderground v.1.15,2013-02-06 15:20:00,
2013-02-06 10:25:00,41.2,32.5,30.30,North,5,5.0,9.0,71,0.00,,,0.00,Wunderground v.1.15,2013-02-06 15:25:00,
2013-02-06 10:30:00,41.9,32.1,30.30,North,355,6.0,6.0,68,0.00,,,0.00,Wunderground v.1.15,2013-02-06 15:30:00,
2013-02-06 10:35:00,42.0,32.2,30.31,NNW,348,5.0,10.0,68,0.00,,,0.00,Wunderground v.1.15,2013-02-06 15:35:00,
2013-02-06 10:45:00,42.6,32.4,30.31,North,5,6.0,12.0,67,0.00,,,0.00,Wunderground v.1.15,2013-02-06 15:45:00,
2013-02-06 10:50:00,42.8,32.2,30.31,North,5,6.0,6.0,66,0.00,,,0.00,Wunderground v.1.15,2013-02-06 15:50:00,
2013-02-06 10:55:00,43.2,31.8,30.31,North,5,6.0,12.0,64,0.00,,,0.00,Wunderground v.1.15,2013-02-06 15:55:00,
2013-02-06 11:00:00,43.6,31.8,30.31,North,355,6.0,12.0,63,0.00,,,0.00,Wunderground v.1.15,2013-02-06 16:00:00,
2013-02-06 11:05:00,44.0,31.4,30.31,NNE,21,6.0,12.0,61,0.00,,,0.00,Wunderground v.1.15,2013-02-06 16:05:00,
2013-02-06 11:15:00,44.9,31.8,30.31,North,351,6.0,11.0,60,0.00,,,0.00,Wunderground v.1.15,2013-02-06 16:15:00,
2013-02-06 11:20:00,45.7,33.4,30.31,North,355,5.0,5.0,62,0.00,,,0.00,Wunderground v.1.15,2013-02-06 16:20:00,
2013-02-06 11:25:00,46.2,32.2,30.31,North,5,5.0,11.0,58,0.00,,,0.00,Wunderground v.1.15,2013-02-06 16:25:00,
2013-02-06 11:30:00,46.3,31.0,30.31,NNW,348,6.0,11.0,55,0.00,,,0.00,Wunderground v.1.15,2013-02-06 16:30:00,
2013-02-06 11:35:00,46.5,29.3,30.31,North,360,6.0,11.0,51,0.00,,,0.00,Wunderground v.1.15,2013-02-06 16:35:00,
2013-02-06 11:40:00,46.8,31.5,30.31,NNW,346,5.0,11.0,55,0.00,,,0.00,Wunderground v.1.15,2013-02-06 16:40:00,
2013-02-06 11:45:00,47.3,30.5,30.31,North,355,6.0,11.0,52,0.00,,,0.00,Wunderground v.1.15,2013-02-06 16:45:00,
2013-02-06 11:50:00,47.5,31.7,30.31,NNW,345,7.0,7.0,54,0.00,,,0.00,Wunderground v.1.15,2013-02-06 16:50:00,
2013-02-06 12:00:00,47.7,28.9,30.31,North,5,6.0,6.0,48,0.00,,,0.00,Wunderground v.1.15,2013-02-06 17:00:00,
2013-02-06 12:05:00,47.8,30.5,30.31,North,355,4.0,6.0,51,0.00,,,0.00,Wunderground v.1.15,2013-02-06 17:05:00,
2013-02-06 12:15:00,49.5,29.6,30.31,North,355,4.0,6.0,46,0.00,,,0.00,Wunderground v.1.15,2013-02-06 17:15:00,
2013-02-06 12:25:00,49.4,27.8,30.30,North,355,4.0,4.0,43,0.00,,,0.00,Wunderground v.1.15,2013-02-06 17:25:00,
2013-02-06 12:30:00,49.5,29.6,30.30,North,360,6.0,9.0,46,0.00,,,0.00,Wunderground v.1.15,2013-02-06 17:30:00,
2013-02-06 12:35:00,49.8,28.7,30.30,North,355,5.0,9.0,44,0.00,,,0.00,Wunderground v.1.15,2013-02-06 17:35:00,
2013-02-06 12:44:00,50.3,28.6,30.30,North,351,2.0,8.0,43,0.00,,,0.00,Wunderground v.1.15,2013-02-06 17:44:00,
2013-02-06 12:50:00,50.8,29.1,30.30,North,360,3.0,8.0,43,0.00,,,0.00,Wunderground v.1.15,2013-02-06 17:50:00,
2013-02-06 12:55:00,51.7,28.7,30.29,North,9,3.0,8.0,41,0.00,,,0.00,Wunderground v.1.15,2013-02-06 17:55:00,
2013-02-06 13:00:00,51.7,28.1,30.29,North,355,1.0,8.0,40,0.00,,,0.00,Wunderground v.1.15,2013-02-06 18:00:00,
2013-02-06 13:05:00,51.8,26.3,30.29,NNW,333,2.0,8.0,37,0.00,,,0.00,Wunderground v.1.15,2013-02-06 18:05:00,
2013-02-06 13:15:00,52.6,28.3,30.29,North,355,4.0,8.0,39,0.00,,,0.00,Wunderground v.1.15,2013-02-06 18:15:00,
2013-02-06 13:25:00,53.2,28.2,30.29,North,360,3.0,8.0,38,0.00,,,0.00,Wunderground v.1.15,2013-02-06 18:25:00,
2013-02-06 13:30:00,53.0,26.0,30.28,North,355,2.0,2.0,35,0.00,,,0.00,Wunderground v.1.15,2013-02-06 18:30:00,
2013-02-06 13:35:00,52.9,28.6,30.28,NNW,341,1.0,8.0,39,0.00,,,0.00,Wunderground v.1.15,2013-02-06 18:35:00,
2013-02-06 13:40:00,53.1,27.5,30.28,NNW,340,3.0,8.0,37,0.00,,,0.00,Wunderground v.1.15,2013-02-06 18:40:00,
2013-02-06 13:50:00,54.2,27.8,30.28,North,360,4.0,4.0,36,0.00,,,0.00,Wunderground v.1.15,2013-02-06 18:50:00,
2013-02-06 13:55:00,54.1,27.7,30.28,NNW,346,4.0,7.0,36,0.00,,,0.00,Wunderground v.1.15,2013-02-06 18:55:00,
2013-02-06 14:05:00,54.2,29.1,30.28,NNW,346,3.0,8.0,38,0.00,,,0.00,Wunderground v.1.15,2013-02-06 19:05:00,
2013-02-06 14:15:00,54.8,27.6,30.27,NNW,345,2.0,6.0,35,0.00,,,0.00,Wunderground v.1.15,2013-02-06 19:15:00,
2013-02-06 14:20:00,56.0,28.0,30.27,North,355,2.0,8.0,34,0.00,,,0.00,Wunderground v.1.15,2013-02-06 19:20:00,
2013-02-06 14:30:00,55.2,28.0,30.27,North,350,5.0,5.0,35,0.00,,,0.00,Wunderground v.1.15,2013-02-06 19:30:00,
2013-02-06 14:40:00,56.3,25.2,30.27,NNW,342,4.0,4.0,30,0.00,,,0.00,Wunderground v.1.15,2013-02-06 19:40:00,
2013-02-06 14:45:00,56.4,26.9,30.27,NNE,15,3.0,8.0,32,0.00,,,0.00,Wunderground v.1.15,2013-02-06 19:45:00,
2013-02-06 14:50:00,56.6,27.8,30.27,NNW,335,2.0,8.0,33,0.00,,,0.00,Wunderground v.1.15,2013-02-06 19:50:00,
2013-02-06 14:55:00,56.4,28.3,30.27,NNW,348,4.0,8.0,34,0.00,,,0.00,Wunderground v.1.15,2013-02-06 19:55:00,
2013-02-06 15:05:00,56.5,27.0,30.27,North,355,4.0,9.0,32,0.00,,,0.00,Wunderground v.1.15,2013-02-06 20:05:00,
2013-02-06 15:15:00,56.8,28.0,30.27,North,355,6.0,8.0,33,0.00,,,0.00,Wunderground v.1.15,2013-02-06 20:15:00,
2013-02-06 15:20:00,56.6,27.0,30.27,NNW,344,4.0,4.0,32,0.00,,,0.00,Wunderground v.1.15,2013-02-06 20:20:00,
2013-02-06 15:30:00,57.0,28.9,30.27,NNE,13,3.0,3.0,34,0.00,,,0.00,Wunderground v.1.15,2013-02-06 20:30:00,
2013-02-06 15:35:00,56.8,29.4,30.27,North,351,3.0,5.0,35,0.00,,,0.00,Wunderground v.1.15,2013-02-06 20:35:00,
2013-02-06 15:40:00,56.9,28.8,30.27,NNW,346,4.0,8.0,34,0.00,,,0.00,Wunderground v.1.15,2013-02-06 20:40:00,
2013-02-06 15:50:00,56.8,28.0,30.27,NNW,344,5.0,5.0,33,0.00,,,0.00,Wunderground v.1.15,2013-02-06 20:50:00,
2013-02-06 15:55:00,56.9,28.1,30.27,NNE,18,4.0,8.0,33,0.00,,,0.00,Wunderground v.1.15,2013-02-06 20:55:00,
2013-02-06 16:00:00,56.8,28.0,30.27,North,351,2.0,8.0,33,0.00,,,0.00,Wunderground v.1.15,2013-02-06 21:00:00,
2013-02-06 16:05:00,57.0,28.9,30.28,NNE,18,1.0,8.0,34,0.00,,,0.00,Wunderground v.1.15,2013-02-06 21:05:00,
2013-02-06 16:15:00,57.2,28.3,30.27,North,355,4.0,7.0,33,0.00,,,0.00,Wunderground v.1.15,2013-02-06 21:15:00,
2013-02-06 16:25:00,56.9,28.8,30.27,North,360,7.0,9.0,34,0.00,,,0.00,Wunderground v.1.15,2013-02-06 21:25:00,
2013-02-06 16:30:00,56.6,27.8,30.27,North,355,7.0,8.0,33,0.00,,,0.00,Wunderground v.1.15,2013-02-06 21:30:00,
2013-02-06 16:40:00,56.3,28.3,30.27,North,355,4.0,4.0,34,0.00,,,0.00,Wunderground v.1.15,2013-02-06 21:40:00,
2013-02-06 16:45:00,56.3,28.3,30.27,North,355,5.0,5.0,34,0.00,,,0.00,Wunderground v.1.15,2013-02-06 21:45:00,
2013-02-06 16:50:00,56.1,28.1,30.28,NNW,336,4.0,4.0,34,0.00,,,0.00,Wunderground v.1.15,2013-02-06 21:50:00,
2013-02-06 17:01:00,55.4,28.9,30.28,North,360,3.0,3.0,36,0.00,,,0.00,Wunderground v.1.15,2013-02-06 22:01:00,
2013-02-06 17:10:00,55.0,28.5,30.28,North,355,5.0,9.0,36,0.00,,,0.00,Wunderground v.1.15,2013-02-06 22:10:00,
2013-02-06 17:15:00,54.7,28.9,30.28,North,11,7.0,7.0,37,0.00,,,0.00,Wunderground v.1.15,2013-02-06 22:15:00,
2013-02-06 17:24:00,54.1,28.4,30.28,North,11,6.0,6.0,37,0.00,,,0.00,Wunderground v.1.15,2013-02-06 22:24:00,
2013-02-06 17:30:00,53.6,27.9,30.28,NNE,25,5.0,10.0,37,0.00,,,0.00,Wunderground v.1.15,2013-02-06 22:30:00,
2013-02-06 17:35:00,53.2,28.2,30.29,North,350,4.0,10.0,38,0.00,,,0.00,Wunderground v.1.15,2013-02-06 22:35:00,
2013-02-06 17:40:00,52.8,27.2,30.30,North,360,4.0,10.0,37,0.00,,,0.00,Wunderground v.1.15,2013-02-06 22:40:00,
2013-02-06 17:45:00,52.2,26.7,30.30,North,355,5.0,5.0,37,0.00,,,0.00,Wunderground v.1.15,2013-02-06 22:45:00,
2013-02-06 17:50:00,51.6,26.8,30.29,North,355,4.0,10.0,38,0.00,,,0.00,Wunderground v.1.15,2013-02-06 22:50:00,
2013-02-06 18:00:00,50.4,25.7,30.28,NNE,15,2.0,2.0,38,0.00,,,0.00,Wunderground v.1.15,2013-02-06 23:00:00,
2013-02-06 18:05:00,49.8,25.2,30.29,North,355,2.0,2.0,38,0.00,,,0.00,Wunderground v.1.15,2013-02-06 23:05:00,
2013-02-06 18:14:00,48.8,24.9,30.29,NNW,342,3.0,6.0,39,0.00,,,0.00,Wunderground v.1.15,2013-02-06 23:14:00,
2013-02-06 18:19:00,48.5,24.6,30.29,North,355,4.0,4.0,39,0.00,,,0.00,Wunderground v.1.15,2013-02-06 23:19:00,
2013-02-06 18:24:00,48.2,25.0,30.30,NNE,13,3.0,5.0,40,0.00,,,0.00,Wunderground v.1.15,2013-02-06 23:24:00,
2013-02-06 18:30:00,48.0,24.8,30.30,North,355,3.0,10.0,40,0.00,,,0.00,Wunderground v.1.15,2013-02-06 23:30:00,
2013-02-06 18:35:00,47.7,24.5,30.30,North,360,4.0,10.0,40,0.00,,,0.00,Wunderground v.1.15,2013-02-06 23:35:00,
2013-02-06 18:40:00,47.5,24.9,30.31,North,355,4.0,10.0,41,0.00,,,0.00,Wunderground v.1.15,2013-02-06 23:40:00,
2013-02-06 18:50:00,47.3,24.2,30.31,North,360,5.0,10.0,40,0.00,,,0.00,Wunderground v.1.15,2013-02-06 23:50:00,
2013-02-06 18:55:00,47.2,24.7,30.31,North,5,5.0,10.0,41,0.00,,,0.00,Wunderground v.1.15,2013-02-06 23:55:00,
2013-02-06 19:00:00,47.0,23.9,30.31,North,355,5.0,5.0,40,0.00,,,0.00,Wunderground v.1.15,2013-02-07 00:00:00,
2013-02-06 19:05:00,46.9,24.4,30.31,North,355,3.0,5.0,41,0.00,,,0.00,Wunderground v.1.15,2013-02-07 00:05:00,
2013-02-06 19:14:00,46.3,24.4,30.31,North,355,2.0,4.0,42,0.00,,,0.00,Wunderground v.1.15,2013-02-07 00:14:00,
2013-02-06 19:20:00,46.2,23.8,30.31,North,355,3.0,3.0,41,0.00,,,0.00,Wunderground v.1.15,2013-02-07 00:20:00,
2013-02-06 19:25:00,46.0,24.2,30.31,North,355,4.0,4.0,42,0.00,,,0.00,Wunderground v.1.15,2013-02-07 00:25:00,
2013-02-06 19:30:00,45.9,24.1,30.30,North,360,3.0,3.0,42,0.00,,,0.00,Wunderground v.1.15,2013-02-07 00:30:00,
2013-02-06 19:35:00,45.8,24.0,30.30,North,11,3.0,10.0,42,0.00,,,0.00,Wunderground v.1.15,2013-02-07 00:35:00,
2013-02-06 19:40:00,45.6,24.4,30.30,North,5,2.0,2.0,43,0.00,,,0.00,Wunderground v.1.15,2013-02-07 00:40:00,
2013-02-06 19:45:00,45.3,24.1,30.30,North,5,1.0,3.0,43,0.00,,,0.00,Wunderground v.1.15,2013-02-07 00:45:00,
2013-02-06 19:50:00,45.2,24.6,30.30,North,360,1.0,10.0,44,0.00,,,0.00,Wunderground v.1.15,2013-02-07 00:50:00,
2013-02-06 19:59:00,45.0,24.4,30.30,North,355,1.0,1.0,44,0.00,,,0.00,Wunderground v.1.15,2013-02-07 00:59:00,
2013-02-06 20:05:00,44.9,24.3,30.30,NNW,347,1.0,1.0,44,0.00,,,0.00,Wunderground v.1.15,2013-02-07 01:05:00,
2013-02-06 20:15:00,44.6,24.5,30.30,NNW,347,0.0,6.0,45,0.00,,,0.00,Wunderground v.1.15,2013-02-07 01:15:00,
2013-02-06 20:25:00,44.5,24.5,30.30,North,355,0.0,6.0,45,0.00,,,0.00,Wunderground v.1.15,2013-02-07 01:25:00,
2013-02-06 20:30:00,44.4,24.4,30.30,North,355,0.0,6.0,45,0.00,,,0.00,Wunderground v.1.15,2013-02-07 01:30:00,
2013-02-06 20:35:00,44.5,24.5,30.31,North,355,0.0,6.0,45,0.00,,,0.00,Wunderground v.1.15,2013-02-07 01:35:00,
2013-02-06 20:40:00,44.7,24.1,30.31,North,355,0.0,6.0,44,0.00,,,0.00,Wunderground v.1.15,2013-02-07 01:40:00,
2013-02-06 20:45:00,44.8,25.3,30.30,North,355,1.0,6.0,46,0.00,,,0.00,Wunderground v.1.15,2013-02-07 01:45:00,
2013-02-06 20:50:00,44.5,25.0,30.30,North,355,0.0,6.0,46,0.00,,,0.00,Wunderground v.1.15,2013-02-07 01:50:00,
2013-02-06 20:55:00,44.2,24.7,30.30,North,355,0.0,6.0,46,0.00,,,0.00,Wunderground v.1.15,2013-02-07 01:55:00,
2013-02-06 21:05:00,43.7,24.2,30.30,North,355,0.0,6.0,46,0.00,,,0.00,Wunderground v.1.15,2013-02-07 02:05:00,
2013-02-06 21:15:00,43.1,24.7,30.30,North,355,0.0,0.0,48,0.00,,,0.00,Wunderground v.1.15,2013-02-07 02:15:00,
2013-02-06 21:20:00,42.8,24.9,30.31,North,355,0.0,0.0,49,0.00,,,0.00,Wunderground v.1.15,2013-02-07 02:20:00,
2013-02-06 21:29:00,42.4,25.1,30.32,West,262,0.0,0.0,50,0.00,,,0.00,Wunderground v.1.15,2013-02-07 02:29:00,
2013-02-06 21:35:00,42.2,24.9,30.34,West,263,0.0,0.0,50,0.00,,,0.00,Wunderground v.1.15,2013-02-07 02:35:00,
2013-02-06 21:40:00,42.2,24.9,30.35,West,259,0.0,0.0,50,0.00,,,0.00,Wunderground v.1.15,2013-02-07 02:40:00,
2013-02-06 21:45:00,42.3,25.0,30.34,West,259,0.0,0.0,50,0.00,,,0.00,Wunderground v.1.15,2013-02-07 02:45:00,
2013-02-06 21:50:00,42.1,25.3,30.34,West,259,0.0,0.0,51,0.00,,,0.00,Wunderground v.1.15,2013-02-07 02:50:00,
2013-02-06 21:55:00,42.1,24.3,30.35,West,259,0.0,0.0,49,0.00,,,0.00,Wunderground v.1.15,2013-02-07 02:55:00,
2013-02-06 22:05:00,42.6,24.8,30.35,West,259,0.0,0.0,49,0.00,,,0.00,Wunderground v.1.15,2013-02-07 03:05:00,
2013-02-06 22:15:00,42.8,25.4,30.35,West,259,0.0,0.0,50,0.00,,,0.00,Wunderground v.1.15,2013-02-07 03:15:00,
2013-02-06 22:20:00,42.8,25.4,30.35,West,259,0.0,0.0,50,0.00,,,0.00,Wunderground v.1.15,2013-02-07 03:20:00,
2013-02-06 22:29:00,42.8,24.9,30.34,West,259,0.0,0.0,49,0.00,,,0.00,Wunderground v.1.15,2013-02-07 03:29:00,
2013-02-06 22:34:00,42.9,25.0,30.33,West,259,0.0,0.0,49,0.00,,,0.00,Wunderground v.1.15,2013-02-07 03:34:00,
2013-02-06 22:39:00,43.1,24.7,30.33,West,259,0.0,0.0,48,0.00,,,0.00,Wunderground v.1.15,2013-02-07 03:39:00,
2013-02-06 22:45:00,43.2,25.3,30.32,West,259,0.0,0.0,49,0.00,,,0.00,Wunderground v.1.15,2013-02-07 03:45:00,
2013-02-06 22:50:00,43.2,24.8,30.32,West,259,0.0,0.0,48,0.00,,,0.00,Wunderground v.1.15,2013-02-07 03:50:00,
2013-02-06 22:55:00,43.4,25.0,30.32,West,259,0.0,0.0,48,0.00,,,0.00,Wunderground v.1.15,2013-02-07 03:55:00,
2013-02-06 23:00:00,43.4,25.5,30.32,West,259,0.0,0.0,49,0.00,,,0.00,Wunderground v.1.15,2013-02-07 04:00:00,
2013-02-06 23:05:00,43.3,25.9,30.32,West,259,0.0,0.0,50,0.00,,,0.00,Wunderground v.1.15,2013-02-07 04:05:00,
2013-02-06 23:15:00,43.7,24.8,30.32,West,259,0.0,0.0,47,0.00,,,0.00,Wunderground v.1.15,2013-02-07 04:15:00,
2013-02-06 23:20:00,43.7,24.8,30.32,SW,232,0.0,0.0,47,0.00,,,0.00,Wunderground v.1.15,2013-02-07 04:20:00,
2013-02-06 23:25:00,43.6,24.7,30.32,SW,232,0.0,0.0,47,0.00,,,0.00,Wunderground v.1.15,2013-02-07 04:25:00,
2013-02-06 23:30:00,43.2,24.8,30.32,SSW,206,0.0,0.0,48,0.00,,,0.00,Wunderground v.1.15,2013-02-07 04:30:00,
2013-02-06 23:39:00,42.0,25.2,30.32,SSW,206,0.0,0.0,51,0.00,,,0.00,Wunderground v.1.15,2013-02-07 04:39:00,
2013-02-06 23:45:00,41.6,24.8,30.32,SSW,206,0.0,0.0,51,0.00,,,0.00,Wunderground v.1.15,2013-02-07 04:45:00,
2013-02-06 23:50:00,41.2,24.9,30.32,SSW,202,0.0,0.0,52,0.00,,,0.00,Wunderground v.1.15,2013-02-07 04:50:00,
2013-02-06 23:55:00,40.9,25.1,30.31,SSW,202,0.0,0.0,53,0.00,,,0.00,Wunderground v.1.15,2013-02-07 04:55:00,